[TLELIST] Archives

 

[list_settings.list_name] Current TLEs

March 17th 2021 PST

HST 1 20580U 90037B 21075.96615771 .00000692 00000-0 30963-4 0 9993 2 20580 28.4703 317.0186 0002822 144.8314 331.3027 15.09584418497101 ISS (ZARYA) 1 25544U 98067A 21076.22838122 .00000001 00000-0 82009-5 0 9999 2 25544 51.6441 77.5551 0003453 118.6672 330.1679 15.48910092274347 CXO 1 25867U 99040B 21078.19762416 .00000748 00000-0 00000+0 0 9992 2 25867 57.1667 258.6575 8179965 226.2939 0.4827 0.37805355 21233 ____________________________________________________________________ These 2-Line ...Continue Reading

[list_settings.list_name] Current TLEs

March 16th 2021 PST

HST 1 20580U 90037B 21074.90349116 .00000719 00000-0 32603-4 0 9996 2 20580 28.4705 324.0489 0002850 134.0737 315.5495 15.09583502496945 ISS (ZARYA) 1 25544U 98067A 21075.45999293 .00000661 00000-0 20217-4 0 9994 2 25544 51.6440 81.3555 0003318 116.1166 5.3005 15.48910398274224 CXO 1 25867U 99040B 21075.55328008 .00000670 00000-0 00000-0 0 9999 2 25867 57.2139 258.7362 8174056 226.2963 0.5202 0.37804388 10080 ____________________________________________________________________ These 2-Line ...Continue Reading

[list_settings.list_name] Current TLEs

March 15th 2021 PST

HST 1 20580U 90037B 21073.46256068 .00000713 00000-0 32250-4 0 9991 2 20580 28.4706 333.5819 0002861 119.4783 43.8886 15.09581998496726 ISS (ZARYA) 1 25544U 98067A 21074.38026620 -.00025800 00000-0 -46410-3 0 9996 2 25544 51.6444 86.6906 0003849 92.4029 124.3381 15.48845730274056 CXO 1 25867U 99040B 21075.55328008 .00000670 00000-0 00000-0 0 9999 2 25867 57.2139 258.7362 8174056 226.2963 0.5202 0.37804388 10080 ____________________________________________________________________ These 2-Line ...Continue Reading

[list_settings.list_name] Current TLEs

March 14th 2021 PST

HST 1 20580U 90037B 21073.12871067 .00000679 00000-0 30191-4 0 9999 2 20580 28.4706 335.7906 0002872 116.1770 29.2870 15.09581472496840 ISS (ZARYA) 1 25544U 98067A 21073.46746069 .00000639 00000-0 19820-4 0 9997 2 25544 51.6437 91.2107 0003146 110.7626 52.8195 15.48904541273918 CXO 1 25867U 99040B 21075.55328008 .00000670 00000-0 00000+0 0 9998 2 25867 57.2139 258.7362 8174056 226.2963 0.5202 0.37804388 21228 ____________________________________________________________________ These 2-Line ...Continue Reading

[list_settings.list_name] Current TLEs

March 13th 2021 PST

HST 1 20580U 90037B 21071.92611500 .00000615 00000-0 26289-4 0 9992 2 20580 28.4707 343.7468 0002866 104.1599 332.8522 15.09579930496496 ISS (ZARYA) 1 25544U 98067A 21072.36499112 .00035454 00000-0 65078-3 0 9997 2 25544 51.6416 96.6649 0003088 110.0416 22.0549 15.48910265273743 CXO 1 25867U 99040B 21072.90902994 .00000647 00000-0 00000-0 0 9991 2 25867 57.2440 258.7992 8167904 226.3173 0.5405 0.37805481 10082 ____________________________________________________________________ These 2-Line ...Continue Reading

[list_settings.list_name] Current TLEs

March 12th 2021 PST

HST 1 20580U 90037B 21070.86348609 .00000615 00000-0 26282-4 0 9994 2 20580 28.4708 350.7771 0002870 93.4889 317.2336 15.09579003496333 ISS (ZARYA) 1 25544U 98067A 21071.46631962 -.00004549 00000-0 -74312-4 0 9993 2 25544 51.6443 101.1100 0003514 96.4511 61.1320 15.49042685273603 CXO 1 25867U 99040B 21072.90902994 .00000647 00000-0 00000-0 0 9991 2 25867 57.2440 258.7992 8167904 226.3173 0.5405 0.37805481 10082 ____________________________________________________________________ These 2-Line ...Continue Reading

[list_settings.list_name] Current TLEs

March 11th 2021 PST

HST 1 20580U 90037B 21069.94120567 .00000594 00000-0 25024-4 0 9991 2 20580 28.4708 356.8787 0002867 84.2402 344.4291 15.09578087496199 ISS (ZARYA) 1 25544U 98067A 21070.23343837 .00000044 00000-0 89566-5 0 9990 2 25544 51.6447 107.2049 0003490 91.8773 25.9186 15.49048081273411 CXO 1 25867U 99040B 21070.26491443 .00000655 00000-0 00000-0 0 9999 2 25867 57.2722 258.8646 8163080 226.3424 0.5453 0.37808627 10068 ____________________________________________________________________ These 2-Line ...Continue Reading

[list_settings.list_name] Current TLEs

March 10th 2021 PST

HST 1 20580U 90037B 21069.15936785 .00000630 00000-0 27199-4 0 9997 2 20580 28.4708 2.0512 0002862 76.4395 54.9259 15.09577671496245 ISS (ZARYA) 1 25544U 98067A 21069.26618159 -.00000093 00000-0 64801-5 0 9993 2 25544 51.6448 111.9882 0003383 88.4351 31.8231 15.49046456273268 CXO 1 25867U 99040B 21070.26491443 .00000655 00000-0 00000-0 0 9999 2 25867 57.2722 258.8646 8163080 226.3424 0.5453 0.37808627 10068 ____________________________________________________________________ These 2-Line ...Continue Reading

[list_settings.list_name] Current TLEs

March 9th 2021 PST

HST 1 20580U 90037B 21067.88612156 .00000650 00000-0 28439-4 0 9998 2 20580 28.4708 10.4745 0002839 63.6616 334.5594 15.09576613495887 ISS (ZARYA) 1 25544U 98067A 21068.36070946 .00000228 00000-0 12285-4 0 9996 2 25544 51.6448 116.4681 0003425 84.7314 22.7702 15.49046973273121 CXO 1 25867U 99040B 21070.26491443 .00000655 00000-0 00000-0 0 9999 2 25867 57.2722 258.8646 8163080 226.3424 0.5453 0.37808627 10068 ____________________________________________________________________ These 2-Line ...Continue Reading

[list_settings.list_name] Current TLEs

March 8th 2021 PST

HST 1 20580U 90037B 21067.24465921 .00000641 00000-0 27892-4 0 9996 2 20580 28.4708 14.7183 0002818 57.1421 88.1573 15.09575939495956 ISS (ZARYA) 1 25544U 98067A 21067.45761882 .00001007 00000-0 26396-4 0 9995 2 25544 51.6447 120.9371 0003412 83.2472 24.7920 15.49048732272983 CXO 1 25867U 99040B 21067.62100181 .00000629 00000-0 00000+0 0 9991 2 25867 57.3253 258.9498 8158623 226.3607 0.5726 0.37807044 21195 ____________________________________________________________________ These 2-Line ...Continue Reading
  • This mailing list is a public mailing list - anyone may join or leave, at any time.
  • This mailing list is announce-only.

International Space Station (ISS) / Hubble Space Telescope (HST) / Chandra X-Ray Observatory Orbital Data via EMAIL

Privacy Policy:

Private list